Lid_Strength_Index
6 8 8 8 7 8 8 9 10 8 7 8 8 8 7 5 5 5 5 5 4 4 2 2 1 1 1 0 0 0 0 -0 -0 0 1 1 1 0 -0 -1 -2 -2 -2 -2
7 8 7 6 7 8 8 9 9 8 7 7 8 7 6 6 6 5 5 5 4 4 3 2 2 1 1 1 0 0 0 0 0 0 0 -0 0 -0 -0 -1 -1 -2 -2 -2
9 8 6 7 8 9 8 9 9 9 8 7 8 7 6 6 5 5 4 4 4 4 3 3 2 2 1 1 1 0 0 0 -0 -0 -0 -0 -0 -0 0 0 -0 -1 -1 -1
8 6 7 8 8 7 9 7 8 8 9 10 8 11 8 6 5 5 5 4 4 3 3 2 2 2 1 1 0 0 0 0 -0 -0 0 1 1 2 1 0 0 -0 -1 -1
8 8 8 8 8 7 8 6 7 8 8 9 9 10 8 6 6 5 4 4 3 3 3 3 2 2 1 1 1 0 -0 0 -0 -0 0 1 1 1 0 0 1 -0 0 -1
7 5 6 7 6 6 6 7 8 8 8 11 9 10 10 7 6 5 4 3 3 3 3 2 2 1 1 1 1 0 0 0 -0 -0 0 1 1 1 1 1 1 1 1 0
8 7 6 5 7 6 7 8 10 11 10 12 8 10 9 6 6 5 4 4 3 3 3 3 2 2 2 1 1 1 0 1 0 0 0 0 0 0 1 1 1 1 1 1
10 11 7 5 6 7 7 7 10 14 11 10 9 10 9 5 5 4 4 4 3 3 3 2 2 2 2 2 1 1 1 1 1 0 0 -0 -0 1 1 1 1 1 1 0
9 9 6 6 6 6 8 8 6 8 8 10 8 7 5 5 5 5 5 4 4 3 3 2 2 2 2 2 1 1 1 1 1 0 0 0 0 0 0 -0 -0 0 -0 0
8 10 6 7 5 6 6 5 9 7 12 13 9 9 7 6 5 5 4 4 3 3 3 2 2 2 2 1 1 1 1 1 1 0 0 0 0 0 -0 -0 0 0 -0 -0
6 7 7 7 7 8 6 7 7 7 8 11 12 9 5 6 5 5 4 3 3 3 3 3 2 2 2 1 1 1 1 1 1 1 0 0 0 0 -0 0 0 0 0 -0
6 6 8 7 6 5 6 7 7 9 10 8 9 9 5 5 4 4 4 3 3 3 3 2 2 2 2 2 2 1 1 1 1 0 0 0 0 0 0 0 0 -0 0 0
6 7 9 8 7 6 7 6 6 6 7 9 10 9 5 4 4 3 4 3 3 3 3 3 2 3 2 2 2 1 1 1 1 1 1 1 1 1 0 0 0 0 0 0
4 6 7 9 8 7 8 7 6 7 9 8 8 8 6 5 5 4 4 3 4 3 3 3 3 3 2 2 2 1 1 1 1 1 1 1 1 1 0 0 0 0 0 1
5 8 7 6 6 6 7 7 7 7 7 9 8 8 6 5 5 4 4 4 4 4 4 3 3 3 2 2 2 1 1 1 1 1 1 1 1 0 0 0 0 0 0 1
5 7 7 8 6 6 8 7 7 7 7 7 7 7 5 4 4 4 4 4 4 4 4 3 3 3 2 2 2 1 1 1 1 1 1 1 1 1 0 1 1 1 2 2
6 7 8 10 7 7 9 7 7 6 6 6 8 7 5 6 5 5 4 4 4 4 4 3 3 2 2 1 1 1 1 0 1 1 1 1 1 1 1 0 1 1 2 1
6 7 7 9 8 12 7 5 6 7 6 6 6 6 5 5 4 3 3 4 4 3 3 3 2 2 1 1 1 1 1 1 1 1 1 1 1 1 1 1 1 2 1 2
5 6 8 10 10 8 7 7 7 8 8 6 6 5 4 4 4 3 3 3 3 3 2 2 2 2 1 1 1 1 1 1 1 1 1 1 1 1 1 1 1 1 2 2
6 6 8 9 11 13 8 6 5 5 9 5 5 5 5 4 7 5 3 3 2 2 2 2 1 1 1 1 1 1 1 1 2 1 1 1 1 1 1 1 1 1 1 2
8 8 9 9 10 8 6 5 4 10 9 5 4 4 4 5 5 3 3 3 2 2 2 1 1 1 1 1 1 2 1 2 1 1 1 1 1 1 1 1 1 1 1 2
8 9 9 8 11 12 5 5 8 6 4 4 4 3 4 4 3 3 3 3 2 2 2 2 2 2 1 1 1 2 2 1 0 1 1 1 1 1 1 1 1 1 1 2
9 7 9 8 9 5 4 4 3 3 4 4 4 3 3 3 3 3 3 3 2 2 2 1 2 2 1 1 1 1 1 1 1 1 1 1 1 1 1 1 2 2 1 2
6 5 7 8 6 5 4 3 3 3 4 3 3 3 3 4 3 3 3 3 3 2 2 2 2 2 2 1 1 1 1 0 1 1 2 1 2 2 1 1 1 2 2 2
6 5 7 6 5 5 4 4 3 3 3 3 3 3 3 3 3 3 3 3 2 2 2 2 2 2 2 1 1 1 1 1 1 1 2 2 2 2 2 1 1 2 1 2
4 6 7 7 5 6 5 4 3 4 4 3 3 3 3 3 3 3 3 2 2 2 2 2 2 2 2 1 1 1 1 1 1 2 2 2 2 2 2 2 2 4 6 6